map of ORN home
ORN - Airport
Location
City:  Oran, Oran, Algeria
Near (Alt.):Es SÚnia
Name:Es SÚnia International Airport
Old (Alt.):Ahmed Ben Bella AB
ICAO:DAOO
IATA:ORN

Details
Type:Airport (Aerodrome, Airfield)
Use:Public/Civil, Military, International (customs port of entry)
Latitude:35░37'38"N (35.627222)
Longitude:0░36'41"W (-0.611388)
Elevation:299 ft (91 m)
Variation:0.40░E (WMM2015v2 magnetic declination)
0.14░ annual change
Runways:2
Longest:10039 × 148 ft (3060 × 45 m)

Time
Time Zone:UTC+1
Local Time:

Weather
METAR:DAOO 041400Z 18006KT 140V230 9999 FEW016 15/01 Q1027
TAF:DAOO 041100Z 0412/0512 VRB02KT 9999 FEW016
TEMPO 0412/0418 30010KT PROB30
TEMPO 0504/0508 4000 BR SCT010

Related Locations
Nearby:
Farthest:NZOP: 12232 mi / 19686 km
Opotiki, BOP, NZ

Find:

   beyond  
but within

Other Information
Maps:
NOTAMs:
Links:
Sources:

  
  • flag of Algeria
  

Sectional Chart

Flight Planning
at skyvector.com

Satellite Image

Google Maps Satellite view

 

Copyright © 2004-2019 Karl L. Swartz. All rights reserved.
The Great Circle Mapper name and logo are trademarks of the Great Circle Mapper.
All other trademarks mentioned herein belong to their respective owners.
Please see credits for attibutions and further copyright information.

  Follow gcmap on Facebook Follow gcmap on Twitter GCmap on LinkedIn

hCard Microformat

Geo Microformat